Погода в Маюрово

Россия / Новосибирская область     54°18′43″N   82°25′42″E
темп.,
°C
ветер,
м/с
пор.,
м/с
влажн.,
%
обл.,
%
осадки,
мм/ч
давл.,
гПа
погр.,
м
28 февраля, вс
вс2801:00−29ююз349811 0.0 104047
04:00−29ю349954 0.0 103844
07:00−29ююв449855 0.0 103971
10:00−26ююв599788 0.0 1037192
13:00−20ююв589482 0.0 1034329
16:00−15ююв5991100 0.0 1031479
19:00−14юв51093100 0.2 1027353
22:00−13юв61193100 0.1 1024339
1 марта, пн
пн101:00−11юв61193100 0.4 1020405
04:00−11юв61194100 0.4 1016313
07:00−7ю71295100 1.5 1012661
10:00−5ю81493100 1.4 1010746
13:00−1ююз101696100 2.4 1008862
16:000юз81497100 1.3 10071001
19:000юз71398100 1.9 1006749
22:00−1юз71392100 0.6 1006803
2 марта, вт
вт201:00−2зюз71395100 0.7 1007687
04:00−4з61295100 0.5 1010695
07:00−9з41095100 0.9 1013381
10:00−12з589495 0.2 1015418
13:00−11зюз469297 0.3 1017506
16:00−11зюз3591100 0.1 1017544
19:00−13юз2396100 0.3 101762
22:00−15зюз119793 0.1 101829
3 марта, ср
ср301:00−15юз119797 0.3 101720
04:00−17ююз119876 0.1 101620
07:00−16ю119783 0.1 101720
10:00−14ююз1295100 0.3 1017117
13:00−12юз2390100 0.4 1018366
16:00−10юз4591100 0.3 1019528
19:00−12юз4794100 0.4 1021232
22:00−14ююз489694 0.1 1023201
4 марта, чт
чт401:00−18ююз489890 0.1 1024157
04:00−18ю489899 0.0 1023170
07:00−16ю599698 0.0 1023240
10:00−13ю6129399 0.0 1022356
13:00−8ю7129099 0.0 1021549
16:00−7ю71286100 0.0 1019574
19:00−8ю71286100 0.0 1018430
22:00−9ю61387100 0.0 1017293